owner,sensor,date,latitude,longitude,sea_surface_height_above_sea_level,qcFlag 
TCOON,ioos:station:TCOON:057:1,2019-07-01T00:24:00Z,28.4460,-96.3961,3.653,11111222 
TCOON,ioos:station:TCOON:057:1,2019-07-01T01:24:00Z,28.4460,-96.3961,3.635,11111222 
TCOON,ioos:station:TCOON:057:1,2019-07-01T02:24:00Z,28.4460,-96.3961,3.593,11111222 
TCOON,ioos:station:TCOON:057:1,2019-07-01T03:24:00Z,28.4460,-96.3961,3.577,11111222 
TCOON,ioos:station:TCOON:057:1,2019-07-01T04:24:00Z,28.4460,-96.3961,3.575,11111222 
TCOON,ioos:station:TCOON:057:1,2019-07-01T05:24:00Z,28.4460,-96.3961,3.612,11111222 
TCOON,ioos:station:TCOON:057:1,2019-07-01T06:24:00Z,28.4460,-96.3961,3.643,11111222 
TCOON,ioos:station:TCOON:057:1,2019-07-01T07:24:00Z,28.4460,-96.3961,3.678,11111222 
TCOON,ioos:station:TCOON:057:1,2019-07-01T08:24:00Z,28.4460,-96.3961,3.723,11111222 
TCOON,ioos:station:TCOON:057:1,2019-07-01T09:24:00Z,28.4460,-96.3961,3.77,11111222 
TCOON,ioos:station:TCOON:057:1,2019-07-01T10:24:00Z,28.4460,-96.3961,3.819,11111222 
TCOON,ioos:station:TCOON:057:1,2019-07-01T11:24:00Z,28.4460,-96.3961,3.868,11111222 
TCOON,ioos:station:TCOON:057:1,2019-07-01T12:30:00Z,28.4460,-96.3961,3.909,11111222 
TCOON,ioos:station:TCOON:057:1,2019-07-01T13:30:00Z,28.4460,-96.3961,3.924,11111222 
TCOON,ioos:station:TCOON:057:1,2019-07-01T15:48:00Z,28.4460,-96.3961,3.953,11111222 
TCOON,ioos:station:TCOON:057:1,2019-07-01T16:30:00Z,28.4460,-96.3961,3.943,11111222 
TCOON,ioos:station:TCOON:057:1,2019-07-01T17:30:00Z,28.4460,-96.3961,3.929,11111222 
TCOON,ioos:station:TCOON:057:1,2019-07-01T18:30:00Z,28.4460,-96.3961,3.923,11111222 
TCOON,ioos:station:TCOON:057:1,2019-07-01T19:30:00Z,28.4460,-96.3961,3.898,11111222 
TCOON,ioos:station:TCOON:057:1,2019-07-01T20:30:00Z,28.4460,-96.3961,3.864,11111222 
TCOON,ioos:station:TCOON:057:1,2019-07-01T21:30:00Z,28.4460,-96.3961,3.825,11111222 
TCOON,ioos:station:TCOON:057:1,2019-07-01T22:30:00Z,28.4460,-96.3961,3.799,11111222 
TCOON,ioos:station:TCOON:057:1,2019-07-01T23:24:00Z,28.4460,-96.3961,3.762,11111222 
TCOON,ioos:station:TCOON:057:1,2019-07-02T00:24:00Z,28.4460,-96.3961,3.726,11111222 
TCOON,ioos:station:TCOON:057:1,2019-07-02T01:24:00Z,28.4460,-96.3961,3.68,11111222 
TCOON,ioos:station:TCOON:057:1,2019-07-02T02:24:00Z,28.4460,-96.3961,3.651,11111222 
TCOON,ioos:station:TCOON:057:1,2019-07-02T03:24:00Z,28.4460,-96.3961,3.633,11111222 
TCOON,ioos:station:TCOON:057:1,2019-07-02T04:24:00Z,28.4460,-96.3961,3.603,11111222 
TCOON,ioos:station:TCOON:057:1,2019-07-02T05:24:00Z,28.4460,-96.3961,3.604,11111222 
TCOON,ioos:station:TCOON:057:1,2019-07-02T06:24:00Z,28.4460,-96.3961,3.621,11111222 
TCOON,ioos:station:TCOON:057:1,2019-07-02T07:24:00Z,28.4460,-96.3961,3.665,11111222 
TCOON,ioos:station:TCOON:057:1,2019-07-02T08:24:00Z,28.4460,-96.3961,3.705,11111222 
TCOON,ioos:station:TCOON:057:1,2019-07-02T09:24:00Z,28.4460,-96.3961,3.745,11111222 
TCOON,ioos:station:TCOON:057:1,2019-07-02T10:24:00Z,28.4460,-96.3961,3.804,11111222 
TCOON,ioos:station:TCOON:057:1,2019-07-02T11:24:00Z,28.4460,-96.3961,3.855,11111222 
TCOON,ioos:station:TCOON:057:1,2019-07-02T12:24:00Z,28.4460,-96.3961,3.899,11111222 
TCOON,ioos:station:TCOON:057:1,2019-07-02T13:30:00Z,28.4460,-96.3961,3.932,11111222 
TCOON,ioos:station:TCOON:057:1,2019-07-02T14:30:00Z,28.4460,-96.3961,3.959,11111222 
TCOON,ioos:station:TCOON:057:1,2019-07-02T15:30:00Z,28.4460,-96.3961,3.962,11111222 
TCOON,ioos:station:TCOON:057:1,2019-07-02T16:30:00Z,28.4460,-96.3961,3.96,11111222 
TCOON,ioos:station:TCOON:057:1,2019-07-02T17:30:00Z,28.4460,-96.3961,3.974,11111222 
TCOON,ioos:station:TCOON:057:1,2019-07-02T18:30:00Z,28.4460,-96.3961,3.954,11111222 
TCOON,ioos:station:TCOON:057:1,2019-07-02T19:30:00Z,28.4460,-96.3961,3.967,11111222 
TCOON,ioos:station:TCOON:057:1,2019-07-02T20:30:00Z,28.4460,-96.3961,3.932,11111222 
TCOON,ioos:station:TCOON:057:1,2019-07-02T21:30:00Z,28.4460,-96.3961,3.891,11111222 
TCOON,ioos:station:TCOON:057:1,2019-07-02T22:30:00Z,28.4460,-96.3961,3.857,11111222 
TCOON,ioos:station:TCOON:057:1,2019-07-02T23:24:00Z,28.4460,-96.3961,3.833,11111222 
TCOON,ioos:station:TCOON:057:1,2019-07-03T00:24:00Z,28.4460,-96.3961,3.797,11111222 
TCOON,ioos:station:TCOON:057:1,2019-07-03T01:24:00Z,28.4460,-96.3961,3.766,11111222 
TCOON,ioos:station:TCOON:057:1,2019-07-03T02:24:00Z,28.4460,-96.3961,3.714,11111222 
TCOON,ioos:station:TCOON:057:1,2019-07-03T03:24:00Z,28.4460,-96.3961,3.681,11111222 
TCOON,ioos:station:TCOON:057:1,2019-07-03T04:24:00Z,28.4460,-96.3961,3.659,11111222 
TCOON,ioos:station:TCOON:057:1,2019-07-03T05:24:00Z,28.4460,-96.3961,3.657,11111222 
TCOON,ioos:station:TCOON:057:1,2019-07-03T06:24:00Z,28.4460,-96.3961,3.682,11111222 
TCOON,ioos:station:TCOON:057:1,2019-07-03T07:24:00Z,28.4460,-96.3961,3.699,11111222 
TCOON,ioos:station:TCOON:057:1,2019-07-03T08:24:00Z,28.4460,-96.3961,3.723,11111222 
TCOON,ioos:station:TCOON:057:1,2019-07-03T09:24:00Z,28.4460,-96.3961,3.755,11111222 
TCOON,ioos:station:TCOON:057:1,2019-07-03T10:30:00Z,28.4460,-96.3961,3.812,11111222 
TCOON,ioos:station:TCOON:057:1,2019-07-03T11:24:00Z,28.4460,-96.3961,3.857,11111222 
TCOON,ioos:station:TCOON:057:1,2019-07-03T12:24:00Z,28.4460,-96.3961,3.904,11111222 
TCOON,ioos:station:TCOON:057:1,2019-07-03T13:24:00Z,28.4460,-96.3961,3.944,11111222 
TCOON,ioos:station:TCOON:057:1,2019-07-03T14:30:00Z,28.4460,-96.3961,3.953,11111222 
TCOON,ioos:station:TCOON:057:1,2019-07-03T15:30:00Z,28.4460,-96.3961,3.961,11111222 
TCOON,ioos:station:TCOON:057:1,2019-07-03T16:30:00Z,28.4460,-96.3961,3.982,11111222 
TCOON,ioos:station:TCOON:057:1,2019-07-03T17:30:00Z,28.4460,-96.3961,3.985,11111222 
TCOON,ioos:station:TCOON:057:1,2019-07-03T18:30:00Z,28.4460,-96.3961,3.98,11111222 
TCOON,ioos:station:TCOON:057:1,2019-07-03T19:30:00Z,28.4460,-96.3961,3.958,11111222 
TCOON,ioos:station:TCOON:057:1,2019-07-03T20:30:00Z,28.4460,-96.3961,3.935,11111222 
TCOON,ioos:station:TCOON:057:1,2019-07-03T21:30:00Z,28.4460,-96.3961,3.937,11111222 
TCOON,ioos:station:TCOON:057:1,2019-07-03T22:30:00Z,28.4460,-96.3961,3.882,11111222 
TCOON,ioos:station:TCOON:057:1,2019-07-03T23:24:00Z,28.4460,-96.3961,3.859,11111222 
TCOON,ioos:station:TCOON:057:1,2019-07-04T00:24:00Z,28.4460,-96.3961,3.822,11111222 
TCOON,ioos:station:TCOON:057:1,2019-07-04T01:24:00Z,28.4460,-96.3961,3.762,11111222 
TCOON,ioos:station:TCOON:057:1,2019-07-04T02:24:00Z,28.4460,-96.3961,3.738,11111222 
TCOON,ioos:station:TCOON:057:1,2019-07-04T03:24:00Z,28.4460,-96.3961,3.691,11111222 
TCOON,ioos:station:TCOON:057:1,2019-07-04T04:24:00Z,28.4460,-96.3961,3.63,11111222 
TCOON,ioos:station:TCOON:057:1,2019-07-04T05:24:00Z,28.4460,-96.3961,3.621,11111222 
TCOON,ioos:station:TCOON:057:1,2019-07-04T06:24:00Z,28.4460,-96.3961,3.609,11111222 
TCOON,ioos:station:TCOON:057:1,2019-07-04T07:24:00Z,28.4460,-96.3961,3.656,11111222 
TCOON,ioos:station:TCOON:057:1,2019-07-04T08:24:00Z,28.4460,-96.3961,3.663,11111222 
TCOON,ioos:station:TCOON:057:1,2019-07-04T09:24:00Z,28.4460,-96.3961,3.72,11111222 
TCOON,ioos:station:TCOON:057:1,2019-07-04T10:24:00Z,28.4460,-96.3961,3.743,11111222 
TCOON,ioos:station:TCOON:057:1,2019-07-04T11:24:00Z,28.4460,-96.3961,3.807,11111222 
TCOON,ioos:station:TCOON:057:1,2019-07-04T12:24:00Z,28.4460,-96.3961,3.836,11111222 
TCOON,ioos:station:TCOON:057:1,2019-07-04T13:24:00Z,28.4460,-96.3961,3.873,11111222 
TCOON,ioos:station:TCOON:057:1,2019-07-04T14:24:00Z,28.4460,-96.3961,3.891,11111222 
TCOON,ioos:station:TCOON:057:1,2019-07-04T15:24:00Z,28.4460,-96.3961,3.924,11111222 
TCOON,ioos:station:TCOON:057:1,2019-07-04T16:24:00Z,28.4460,-96.3961,3.94,11111222 
TCOON,ioos:station:TCOON:057:1,2019-07-04T17:24:00Z,28.4460,-96.3961,3.956,11111222 
TCOON,ioos:station:TCOON:057:1,2019-07-04T18:24:00Z,28.4460,-96.3961,3.955,11111222 
TCOON,ioos:station:TCOON:057:1,2019-07-04T19:24:00Z,28.4460,-96.3961,3.943,11111222 
TCOON,ioos:station:TCOON:057:1,2019-07-04T20:30:00Z,28.4460,-96.3961,3.946,11111222 
TCOON,ioos:station:TCOON:057:1,2019-07-04T21:30:00Z,28.4460,-96.3961,3.93,11111222 
TCOON,ioos:station:TCOON:057:1,2019-07-04T22:30:00Z,28.4460,-96.3961,3.895,11111222 
TCOON,ioos:station:TCOON:057:1,2019-07-04T23:24:00Z,28.4460,-96.3961,3.878,11111222 
TCOON,ioos:station:TCOON:057:1,2019-07-05T00:24:00Z,28.4460,-96.3961,3.846,11111222 
TCOON,ioos:station:TCOON:057:1,2019-07-05T01:24:00Z,28.4460,-96.3961,3.807,11111222 
TCOON,ioos:station:TCOON:057:1,2019-07-05T02:24:00Z,28.4460,-96.3961,3.765,11111222 
TCOON,ioos:station:TCOON:057:1,2019-07-05T03:24:00Z,28.4460,-96.3961,3.737,11111222 
TCOON,ioos:station:TCOON:057:1,2019-07-05T04:24:00Z,28.4460,-96.3961,3.698,11111222 
TCOON,ioos:station:TCOON:057:1,2019-07-05T05:36:00Z,28.4460,-96.3961,3.651,11111222 
TCOON,ioos:station:TCOON:057:1,2019-07-05T06:24:00Z,28.4460,-96.3961,3.642,11111222 
TCOON,ioos:station:TCOON:057:1,2019-07-05T07:24:00Z,28.4460,-96.3961,3.643,11111222 
TCOON,ioos:station:TCOON:057:1,2019-07-05T08:24:00Z,28.4460,-96.3961,3.646,11111222 
TCOON,ioos:station:TCOON:057:1,2019-07-05T09:24:00Z,28.4460,-96.3961,3.663,11111222 
TCOON,ioos:station:TCOON:057:1,2019-07-05T10:24:00Z,28.4460,-96.3961,3.717,11111222 
TCOON,ioos:station:TCOON:057:1,2019-07-05T11:24:00Z,28.4460,-96.3961,3.747,11111222 
TCOON,ioos:station:TCOON:057:1,2019-07-05T12:24:00Z,28.4460,-96.3961,3.783,11111222 
TCOON,ioos:station:TCOON:057:1,2019-07-05T13:24:00Z,28.4460,-96.3961,3.815,11111222 
TCOON,ioos:station:TCOON:057:1,2019-07-05T14:24:00Z,28.4460,-96.3961,3.844,11111222 
TCOON,ioos:station:TCOON:057:1,2019-07-05T15:24:00Z,28.4460,-96.3961,3.879,11111222 
TCOON,ioos:station:TCOON:057:1,2019-07-05T16:30:00Z,28.4460,-96.3961,3.907,11111222 
TCOON,ioos:station:TCOON:057:1,2019-07-05T17:30:00Z,28.4460,-96.3961,3.922,11111222 
TCOON,ioos:station:TCOON:057:1,2019-07-05T18:24:00Z,28.4460,-96.3961,3.92,11111222 
TCOON,ioos:station:TCOON:057:1,2019-07-05T19:30:00Z,28.4460,-96.3961,3.925,11111222 
TCOON,ioos:station:TCOON:057:1,2019-07-05T20:30:00Z,28.4460,-96.3961,3.911,11111222 
TCOON,ioos:station:TCOON:057:1,2019-07-05T21:30:00Z,28.4460,-96.3961,3.905,11111222 
TCOON,ioos:station:TCOON:057:1,2019-07-05T22:30:00Z,28.4460,-96.3961,3.892,11111222 
TCOON,ioos:station:TCOON:057:1,2019-07-05T23:24:00Z,28.4460,-96.3961,3.869,11111222 
TCOON,ioos:station:TCOON:057:1,2019-07-06T00:24:00Z,28.4460,-96.3961,3.834,11111222 
TCOON,ioos:station:TCOON:057:1,2019-07-06T01:24:00Z,28.4460,-96.3961,3.795,11111222 
TCOON,ioos:station:TCOON:057:1,2019-07-06T02:24:00Z,28.4460,-96.3961,3.768,11111222 
TCOON,ioos:station:TCOON:057:1,2019-07-06T03:24:00Z,28.4460,-96.3961,3.73,11111222 
TCOON,ioos:station:TCOON:057:1,2019-07-06T04:24:00Z,28.4460,-96.3961,3.682,11111222 
TCOON,ioos:station:TCOON:057:1,2019-07-06T05:24:00Z,28.4460,-96.3961,3.651,11111222 
TCOON,ioos:station:TCOON:057:1,2019-07-06T06:24:00Z,28.4460,-96.3961,3.627,11111222 
TCOON,ioos:station:TCOON:057:1,2019-07-06T07:24:00Z,28.4460,-96.3961,3.604,11111222 
TCOON,ioos:station:TCOON:057:1,2019-07-06T08:24:00Z,28.4460,-96.3961,3.595,11111222 
TCOON,ioos:station:TCOON:057:1,2019-07-06T09:24:00Z,28.4460,-96.3961,3.595,11111222 
TCOON,ioos:station:TCOON:057:1,2019-07-06T10:24:00Z,28.4460,-96.3961,3.64,11111222 
TCOON,ioos:station:TCOON:057:1,2019-07-06T11:24:00Z,28.4460,-96.3961,3.674,11111222 
TCOON,ioos:station:TCOON:057:1,2019-07-06T12:24:00Z,28.4460,-96.3961,3.708,11111222 
TCOON,ioos:station:TCOON:057:1,2019-07-06T13:24:00Z,28.4460,-96.3961,3.73,11111222 
TCOON,ioos:station:TCOON:057:1,2019-07-06T14:24:00Z,28.4460,-96.3961,3.771,11111222 
TCOON,ioos:station:TCOON:057:1,2019-07-06T15:24:00Z,28.4460,-96.3961,3.792,11111222 
TCOON,ioos:station:TCOON:057:1,2019-07-06T16:24:00Z,28.4460,-96.3961,3.807,11111222 
TCOON,ioos:station:TCOON:057:1,2019-07-06T17:30:00Z,28.4460,-96.3961,3.825,11111222 
TCOON,ioos:station:TCOON:057:1,2019-07-06T18:30:00Z,28.4460,-96.3961,3.824,11111222 
TCOON,ioos:station:TCOON:057:1,2019-07-06T19:24:00Z,28.4460,-96.3961,3.834,11111222 
TCOON,ioos:station:TCOON:057:1,2019-07-06T20:24:00Z,28.4460,-96.3961,3.829,11111222 
TCOON,ioos:station:TCOON:057:1,2019-07-06T21:24:00Z,28.4460,-96.3961,3.821,11111222 
TCOON,ioos:station:TCOON:057:1,2019-07-06T22:24:00Z,28.4460,-96.3961,3.816,11111222 
TCOON,ioos:station:TCOON:057:1,2019-07-06T23:24:00Z,28.4460,-96.3961,3.804,11111222 
TCOON,ioos:station:TCOON:057:1,2019-07-07T00:24:00Z,28.4460,-96.3961,3.791,11111222 
TCOON,ioos:station:TCOON:057:1,2019-07-07T01:24:00Z,28.4460,-96.3961,3.773,11111222 
TCOON,ioos:station:TCOON:057:1,2019-07-07T02:24:00Z,28.4460,-96.3961,3.746,11111222 
TCOON,ioos:station:TCOON:057:1,2019-07-07T03:24:00Z,28.4460,-96.3961,3.719,11111222 
TCOON,ioos:station:TCOON:057:1,2019-07-07T04:24:00Z,28.4460,-96.3961,3.697,11111222 
TCOON,ioos:station:TCOON:057:1,2019-07-07T05:24:00Z,28.4460,-96.3961,3.663,11111222 
TCOON,ioos:station:TCOON:057:1,2019-07-07T06:24:00Z,28.4460,-96.3961,3.629,11111222 
TCOON,ioos:station:TCOON:057:1,2019-07-07T07:24:00Z,28.4460,-96.3961,3.608,11111222 
TCOON,ioos:station:TCOON:057:1,2019-07-07T08:24:00Z,28.4460,-96.3961,3.598,11111222 
TCOON,ioos:station:TCOON:057:1,2019-07-07T09:24:00Z,28.4460,-96.3961,3.597,11111222 
TCOON,ioos:station:TCOON:057:1,2019-07-07T10:24:00Z,28.4460,-96.3961,3.604,11111222 
TCOON,ioos:station:TCOON:057:1,2019-07-07T11:24:00Z,28.4460,-96.3961,3.65,11111222 
TCOON,ioos:station:TCOON:057:1,2019-07-07T12:24:00Z,28.4460,-96.3961,3.687,11111222 
TCOON,ioos:station:TCOON:057:1,2019-07-07T13:24:00Z,28.4460,-96.3961,3.721,11111222 
TCOON,ioos:station:TCOON:057:1,2019-07-07T14:24:00Z,28.4460,-96.3961,3.738,11111222 
TCOON,ioos:station:TCOON:057:1,2019-07-07T15:30:00Z,28.4460,-96.3961,3.768,11111222 
TCOON,ioos:station:TCOON:057:1,2019-07-07T16:24:00Z,28.4460,-96.3961,3.794,11111222 
TCOON,ioos:station:TCOON:057:1,2019-07-07T17:24:00Z,28.4460,-96.3961,3.796,11111222 
TCOON,ioos:station:TCOON:057:1,2019-07-07T18:24:00Z,28.4460,-96.3961,3.81,11111222 
TCOON,ioos:station:TCOON:057:1,2019-07-07T19:30:00Z,28.4460,-96.3961,3.804,11111222 
TCOON,ioos:station:TCOON:057:1,2019-07-07T20:30:00Z,28.4460,-96.3961,3.805,11111222 
TCOON,ioos:station:TCOON:057:1,2019-07-07T21:30:00Z,28.4460,-96.3961,3.797,11111222 
TCOON,ioos:station:TCOON:057:1,2019-07-07T22:30:00Z,28.4460,-96.3961,3.79,11111222 
TCOON,ioos:station:TCOON:057:1,2019-07-07T23:24:00Z,28.4460,-96.3961,3.798,11111222 
TCOON,ioos:station:TCOON:057:1,2019-07-08T00:24:00Z,28.4460,-96.3961,3.79,11111222 
TCOON,ioos:station:TCOON:057:1,2019-07-08T01:24:00Z,28.4460,-96.3961,3.773,11111222 
TCOON,ioos:station:TCOON:057:1,2019-07-08T02:24:00Z,28.4460,-96.3961,3.759,11111222 
TCOON,ioos:station:TCOON:057:1,2019-07-08T03:24:00Z,28.4460,-96.3961,3.731,11111222 
TCOON,ioos:station:TCOON:057:1,2019-07-08T04:24:00Z,28.4460,-96.3961,3.71,11111222 
TCOON,ioos:station:TCOON:057:1,2019-07-08T05:24:00Z,28.4460,-96.3961,3.688,11111222 
TCOON,ioos:station:TCOON:057:1,2019-07-08T06:24:00Z,28.4460,-96.3961,3.675,11111222 
TCOON,ioos:station:TCOON:057:1,2019-07-08T07:24:00Z,28.4460,-96.3961,3.649,11111222 
TCOON,ioos:station:TCOON:057:1,2019-07-08T08:24:00Z,28.4460,-96.3961,3.64,11111222 
TCOON,ioos:station:TCOON:057:1,2019-07-08T09:24:00Z,28.4460,-96.3961,3.629,11111222 
TCOON,ioos:station:TCOON:057:1,2019-07-08T10:24:00Z,28.4460,-96.3961,3.646,11111222 
TCOON,ioos:station:TCOON:057:1,2019-07-08T11:24:00Z,28.4460,-96.3961,3.65,11111222 
TCOON,ioos:station:TCOON:057:1,2019-07-08T12:24:00Z,28.4460,-96.3961,3.678,11111222 
TCOON,ioos:station:TCOON:057:1,2019-07-08T13:30:00Z,28.4460,-96.3961,3.697,11111222 
TCOON,ioos:station:TCOON:057:1,2019-07-08T14:30:00Z,28.4460,-96.3961,3.715,11111222 
TCOON,ioos:station:TCOON:057:1,2019-07-08T15:30:00Z,28.4460,-96.3961,3.74,11111222 
TCOON,ioos:station:TCOON:057:1,2019-07-08T16:30:00Z,28.4460,-96.3961,3.747,11111222 
TCOON,ioos:station:TCOON:057:1,2019-07-08T17:36:00Z,28.4460,-96.3961,3.758,11111222 
TCOON,ioos:station:TCOON:057:1,2019-07-08T18:36:00Z,28.4460,-96.3961,3.757,11111222 
TCOON,ioos:station:TCOON:057:1,2019-07-08T19:30:00Z,28.4460,-96.3961,3.76,11111222 
TCOON,ioos:station:TCOON:057:1,2019-07-15T13:48:00Z,28.4460,-96.3961,3.776,11111222 
TCOON,ioos:station:TCOON:057:1,2019-07-15T14:24:00Z,28.4460,-96.3961,3.789,11111222 
TCOON,ioos:station:TCOON:057:1,2019-07-15T15:24:00Z,28.4460,-96.3961,3.805,11111222 
TCOON,ioos:station:TCOON:057:1,2019-07-15T16:24:00Z,28.4460,-96.3961,3.814,11111222 
TCOON,ioos:station:TCOON:057:1,2019-07-15T17:24:00Z,28.4460,-96.3961,3.84,11111222 
TCOON,ioos:station:TCOON:057:1,2019-07-15T18:24:00Z,28.4460,-96.3961,3.849,11111222 
TCOON,ioos:station:TCOON:057:1,2019-07-15T19:24:00Z,28.4460,-96.3961,3.844,11111222 
TCOON,ioos:station:TCOON:057:1,2019-07-15T20:24:00Z,28.4460,-96.3961,3.82,11111222 
TCOON,ioos:station:TCOON:057:1,2019-07-15T21:24:00Z,28.4460,-96.3961,3.796,11111222 
TCOON,ioos:station:TCOON:057:1,2019-07-15T22:24:00Z,28.4460,-96.3961,3.759,11111222 
TCOON,ioos:station:TCOON:057:1,2019-07-15T23:24:00Z,28.4460,-96.3961,3.732,11111222 
TCOON,ioos:station:TCOON:057:1,2019-07-16T00:24:00Z,28.4460,-96.3961,3.699,11111222 
TCOON,ioos:station:TCOON:057:1,2019-07-16T01:24:00Z,28.4460,-96.3961,3.681,11111222 
TCOON,ioos:station:TCOON:057:1,2019-07-16T02:24:00Z,28.4460,-96.3961,3.652,11111222 
TCOON,ioos:station:TCOON:057:1,2019-07-16T03:24:00Z,28.4460,-96.3961,3.617,11111222 
TCOON,ioos:station:TCOON:057:1,2019-07-16T04:24:00Z,28.4460,-96.3961,3.619,11111222 
TCOON,ioos:station:TCOON:057:1,2019-07-16T05:24:00Z,28.4460,-96.3961,3.597,11111222 
TCOON,ioos:station:TCOON:057:1,2019-07-16T06:24:00Z,28.4460,-96.3961,3.599,11111222 
TCOON,ioos:station:TCOON:057:1,2019-07-16T07:24:00Z,28.4460,-96.3961,3.631,11111222 
TCOON,ioos:station:TCOON:057:1,2019-07-16T08:24:00Z,28.4460,-96.3961,3.657,11111222 
TCOON,ioos:station:TCOON:057:1,2019-07-16T09:24:00Z,28.4460,-96.3961,3.692,11111222 
TCOON,ioos:station:TCOON:057:1,2019-07-16T10:24:00Z,28.4460,-96.3961,3.731,11111222 
TCOON,ioos:station:TCOON:057:1,2019-07-16T11:24:00Z,28.4460,-96.3961,3.787,11111222 
TCOON,ioos:station:TCOON:057:1,2019-07-16T12:24:00Z,28.4460,-96.3961,3.809,11111222 
TCOON,ioos:station:TCOON:057:1,2019-07-16T13:24:00Z,28.4460,-96.3961,3.837,11111222 
TCOON,ioos:station:TCOON:057:1,2019-07-16T14:24:00Z,28.4460,-96.3961,3.858,11111222 
TCOON,ioos:station:TCOON:057:1,2019-07-16T15:24:00Z,28.4460,-96.3961,3.88,11111222 
TCOON,ioos:station:TCOON:057:1,2019-07-16T16:24:00Z,28.4460,-96.3961,3.878,11111222 
TCOON,ioos:station:TCOON:057:1,2019-07-16T17:24:00Z,28.4460,-96.3961,3.879,11111222 
TCOON,ioos:station:TCOON:057:1,2019-07-16T18:24:00Z,28.4460,-96.3961,3.884,11111222 
TCOON,ioos:station:TCOON:057:1,2019-07-16T19:24:00Z,28.4460,-96.3961,3.883,11111222 
TCOON,ioos:station:TCOON:057:1,2019-07-16T20:24:00Z,28.4460,-96.3961,3.874,11111222 
TCOON,ioos:station:TCOON:057:1,2019-07-16T21:24:00Z,28.4460,-96.3961,3.851,11111222 
TCOON,ioos:station:TCOON:057:1,2019-07-16T22:24:00Z,28.4460,-96.3961,3.828,11111222 
TCOON,ioos:station:TCOON:057:1,2019-07-16T23:24:00Z,28.4460,-96.3961,3.794,11111222 
TCOON,ioos:station:TCOON:057:1,2019-07-17T00:24:00Z,28.4460,-96.3961,3.763,11111222 
TCOON,ioos:station:TCOON:057:1,2019-07-17T01:24:00Z,28.4460,-96.3961,3.739,11111222 
TCOON,ioos:station:TCOON:057:1,2019-07-17T02:24:00Z,28.4460,-96.3961,3.693,11111222 
TCOON,ioos:station:TCOON:057:1,2019-07-17T03:24:00Z,28.4460,-96.3961,3.691,11111222 
TCOON,ioos:station:TCOON:057:1,2019-07-17T04:24:00Z,28.4460,-96.3961,3.657,11111222 
TCOON,ioos:station:TCOON:057:1,2019-07-17T05:24:00Z,28.4460,-96.3961,3.646,11111222 
TCOON,ioos:station:TCOON:057:1,2019-07-17T06:24:00Z,28.4460,-96.3961,3.626,11111222 
TCOON,ioos:station:TCOON:057:1,2019-07-17T07:24:00Z,28.4460,-96.3961,3.659,11111222 
TCOON,ioos:station:TCOON:057:1,2019-07-17T08:24:00Z,28.4460,-96.3961,3.679,11111222 
TCOON,ioos:station:TCOON:057:1,2019-07-17T09:24:00Z,28.4460,-96.3961,3.703,11111222 
TCOON,ioos:station:TCOON:057:1,2019-07-17T10:24:00Z,28.4460,-96.3961,3.747,11111222 
TCOON,ioos:station:TCOON:057:1,2019-07-17T11:24:00Z,28.4460,-96.3961,3.797,11111222 
TCOON,ioos:station:TCOON:057:1,2019-07-17T12:24:00Z,28.4460,-96.3961,3.832,11111222 
TCOON,ioos:station:TCOON:057:1,2019-07-17T13:24:00Z,28.4460,-96.3961,3.861,11111222 
TCOON,ioos:station:TCOON:057:1,2019-07-17T14:24:00Z,28.4460,-96.3961,3.874,11111222 
TCOON,ioos:station:TCOON:057:1,2019-07-17T15:24:00Z,28.4460,-96.3961,3.9,11111222 
TCOON,ioos:station:TCOON:057:1,2019-07-17T16:24:00Z,28.4460,-96.3961,3.914,11111222 
TCOON,ioos:station:TCOON:057:1,2019-07-17T17:24:00Z,28.4460,-96.3961,3.902,11111222 
TCOON,ioos:station:TCOON:057:1,2019-07-18T16:24:00Z,28.4460,-96.3961,3.936,11111222 
TCOON,ioos:station:TCOON:057:1,2019-07-18T17:24:00Z,28.4460,-96.3961,3.941,11111222 
TCOON,ioos:station:TCOON:057:1,2019-07-18T18:24:00Z,28.4460,-96.3961,3.925,11111222 
TCOON,ioos:station:TCOON:057:1,2019-07-18T19:24:00Z,28.4460,-96.3961,3.931,11111222 
TCOON,ioos:station:TCOON:057:1,2019-07-18T20:24:00Z,28.4460,-96.3961,3.929,11111222 
TCOON,ioos:station:TCOON:057:1,2019-07-18T21:24:00Z,28.4460,-96.3961,3.903,11111222 
TCOON,ioos:station:TCOON:057:1,2019-07-18T22:24:00Z,28.4460,-96.3961,3.885,11111222 
TCOON,ioos:station:TCOON:057:1,2019-07-18T23:24:00Z,28.4460,-96.3961,3.872,11111222 
TCOON,ioos:station:TCOON:057:1,2019-07-19T00:24:00Z,28.4460,-96.3961,3.834,11111222 
TCOON,ioos:station:TCOON:057:1,2019-07-19T01:24:00Z,28.4460,-96.3961,3.793,11111222 
TCOON,ioos:station:TCOON:057:1,2019-07-19T02:24:00Z,28.4460,-96.3961,3.775,11111222 
TCOON,ioos:station:TCOON:057:1,2019-07-19T03:24:00Z,28.4460,-96.3961,3.733,11111222 
TCOON,ioos:station:TCOON:057:1,2019-07-19T04:24:00Z,28.4460,-96.3961,3.703,11111222 
TCOON,ioos:station:TCOON:057:1,2019-07-19T05:24:00Z,28.4460,-96.3961,3.684,11111222 
TCOON,ioos:station:TCOON:057:1,2019-07-19T06:24:00Z,28.4460,-96.3961,3.668,11111222 
TCOON,ioos:station:TCOON:057:1,2019-07-19T07:24:00Z,28.4460,-96.3961,3.67,11111222 
TCOON,ioos:station:TCOON:057:1,2019-07-19T08:24:00Z,28.4460,-96.3961,3.68,11111222 
TCOON,ioos:station:TCOON:057:1,2019-07-19T09:24:00Z,28.4460,-96.3961,3.699,11111222 
TCOON,ioos:station:TCOON:057:1,2019-07-19T10:24:00Z,28.4460,-96.3961,3.725,11111222 
TCOON,ioos:station:TCOON:057:1,2019-07-19T11:24:00Z,28.4460,-96.3961,3.744,11111222 
TCOON,ioos:station:TCOON:057:1,2019-07-19T12:24:00Z,28.4460,-96.3961,3.792,11111222 
TCOON,ioos:station:TCOON:057:1,2019-07-19T13:24:00Z,28.4460,-96.3961,3.83,11111222 
TCOON,ioos:station:TCOON:057:1,2019-07-19T14:24:00Z,28.4460,-96.3961,3.85,11111222 
TCOON,ioos:station:TCOON:057:1,2019-07-19T15:24:00Z,28.4460,-96.3961,3.873,11111222 
TCOON,ioos:station:TCOON:057:1,2019-07-19T16:24:00Z,28.4460,-96.3961,3.893,11111222 
TCOON,ioos:station:TCOON:057:1,2019-07-19T17:24:00Z,28.4460,-96.3961,3.903,11111222 
TCOON,ioos:station:TCOON:057:1,2019-07-19T18:24:00Z,28.4460,-96.3961,3.908,11111222 
TCOON,ioos:station:TCOON:057:1,2019-07-19T19:24:00Z,28.4460,-96.3961,3.924,11111222 
TCOON,ioos:station:TCOON:057:1,2019-07-19T20:24:00Z,28.4460,-96.3961,3.911,11111222 
TCOON,ioos:station:TCOON:057:1,2019-07-19T21:24:00Z,28.4460,-96.3961,3.904,11111222 
TCOON,ioos:station:TCOON:057:1,2019-07-19T22:24:00Z,28.4460,-96.3961,3.881,11111222 
TCOON,ioos:station:TCOON:057:1,2019-07-19T23:24:00Z,28.4460,-96.3961,3.864,11111222 
TCOON,ioos:station:TCOON:057:1,2019-07-20T00:24:00Z,28.4460,-96.3961,3.839,11111222 
TCOON,ioos:station:TCOON:057:1,2019-07-20T01:24:00Z,28.4460,-96.3961,3.805,11111222 
TCOON,ioos:station:TCOON:057:1,2019-07-20T02:24:00Z,28.4460,-96.3961,3.782,11111222 
TCOON,ioos:station:TCOON:057:1,2019-07-20T03:24:00Z,28.4460,-96.3961,3.754,11111222 
TCOON,ioos:station:TCOON:057:1,2019-07-20T04:24:00Z,28.4460,-96.3961,3.721,11111222 
TCOON,ioos:station:TCOON:057:1,2019-07-20T05:24:00Z,28.4460,-96.3961,3.689,11111222 
TCOON,ioos:station:TCOON:057:1,2019-07-20T06:24:00Z,28.4460,-96.3961,3.687,11111222 
TCOON,ioos:station:TCOON:057:1,2019-07-20T07:24:00Z,28.4460,-96.3961,3.658,11111222 
TCOON,ioos:station:TCOON:057:1,2019-07-20T08:24:00Z,28.4460,-96.3961,3.654,11111222 